This is the latest recevied weather packets stored in our database for station/object N7AWM. If no packets are shown the sender has not sent any weather packets the latest 10 day(s).
| Time | Temp. | Humidity | Pressure | Rain* | Wind** | Luminosity | Snow |
|---|---|---|---|---|---|---|---|
| 1778030876 | 26.67° C | 34% | 1005 hPa | 0 mm | - | - | - |
| 1778030036 | 26.67° C | 34% | 1005 hPa | 0 mm | - | - | - |
| 1778029196 | 26.11° C | 35% | 1005.1 hPa | 0 mm | - | - | - |
| 1778028356 | 26.67° C | 35% | 1005 hPa | 0 mm | - | - | - |
| 1778027516 | 27.22° C | 33% | 1005.1 hPa | 0 mm | - | - | - |
| 1778026676 | 26.67° C | 35% | 1005.1 hPa | 0 mm | - | - | - |
| 1778025836 | 26.67° C | 34% | 1005.3 hPa | 0 mm | - | - | - |
| 1778024996 | 26.67° C | 34% | 1005.4 hPa | 0 mm | - | - | - |
| 1778024156 | 27.22° C | 32% | 1005.5 hPa | 0 mm | - | - | - |
| 1778023316 | 26.67° C | 31% | 1005.5 hPa | 0 mm | - | - | - |
| 1778022476 | 27.22° C | 31% | 1005.7 hPa | 0 mm | - | - | - |
| 1778021636 | 27.78° C | 33% | 1005.7 hPa | 0 mm | - | - | - |
| 1778020796 | 27.78° C | 29% | 1005.9 hPa | 0 mm | - | - | - |
| 1778019957 | 27.22° C | 33% | 1006 hPa | 0 mm | - | - | - |
| 1778019117 | 27.22° C | 30% | 1006.2 hPa | 0 mm | - | - | - |
| 1778018277 | 27.22° C | 30% | 1006.2 hPa | 0 mm | - | - | - |
| 1778017437 | 26.67° C | 31% | 1006.3 hPa | 0 mm | - | - | - |
| 1778016597 | 27.22° C | 29% | 1006.3 hPa | 0 mm | - | - | - |
| 1778015757 | 26.67° C | 32% | 1006.4 hPa | 0 mm | - | - | - |
| 1778014917 | 26.67° C | 31% | 1006.5 hPa | 0 mm | - | - | - |
| 1778014077 | 26.67° C | 31% | 1006.7 hPa | 0 mm | - | - | - |
| 1778013237 | 26.11° C | 31% | 1006.8 hPa | 0 mm | - | - | - |
| 1778012397 | 26.11° C | 31% | 1006.8 hPa | 0 mm | - | - | - |
| 1778011557 | 26.11° C | 34% | 1006.8 hPa | 0 mm | - | - | - |
| 1778010717 | 25.56° C | 36% | 1006.9 hPa | 0 mm | - | - | - |
* Rain latest hour (hover to see other rain measurements)
** Current wind speed in m/s (hover to see current wind gust speed)